Audubon, IA

1:27 AM CDT on August 19, 2017 (GMT -0500)
Audubon County

Weather History for KADU - January, 2013

Change the Weather History Date:

Thursday, January 24, 2013

  Actual Average Record
Temperature  
Mean Temperature 10 °F -  
Max Temperature 19 °F 32 °F 67 °F (1981)
Min Temperature 1 °F 13 °F -20 °F (1961)
Degree Days  
Heating Degree Days 55    
Moisture  
Dew Point -4 °F    
Average Humidity 56    
Maximum Humidity 72    
Minimum Humidity 42    
Precipitation  
Precipitation 0.00 in - - ()
Sea Level Pressure  
Sea Level Pressure 30.39 in    
Wind  
Wind Speed 11 mph (ESE)    
Max Wind Speed 17 mph    
Max Gust Speed 20 mph    
Visibility 10 miles    
Events      
Averages and records for this station are not official NWS values.
T = Trace of Precipitation, MM = Missing Value Source: NWS Daily Summary

Daily Weather History Graph

Daily Weather History Graph

Search for Another Location

Airport or City:

Trip Planner

Search our weather history database for the weather conditions in past years. The results will help you decide how hot, cold, wet, or windy it might be!

Date:

Astronomy

Jan. 24, 2013 Rise Set
Actual Time 7:38 AM CST 5:25 PM CST
Civil Twilight 7:08 AM CST 5:55 PM CST
Nautical Twilight 6:34 AM CST 6:29 PM CST
Astronomical Twilight 6:02 AM CST 7:02 PM CST
Moon 3:27 PM CST (1/24) 5:37 AM CST (1/24)
Length of Visible Light 10h 46m
Length of Day
9h 46m
Waxing Gibbous, 94% of the Moon is Illuminated
Jan 24
Waxing Gibbous
Jan 26
Full
Feb 3
Last Quarter
Feb 10
New
Feb 17
First Quarter

Hourly Weather History & Observations

Time (CST) Temp. Windchill Dew Point Humidity Pressure Visibility Wind Dir Wind Speed Gust Speed Precip Events Conditions
12:15 AM 1.4 °F -17.6 °F -5.8 °F 72% 30.50 in 10.0 mi North 15.0 mph - N/A   Clear
12:35 AM 1.4 °F -16.9 °F -7.6 °F 66% 30.50 in 10.0 mi NNE 13.8 mph 19.6 mph N/A   Clear
12:55 AM 1.4 °F -14.5 °F -7.6 °F 66% 30.51 in 10.0 mi NNE 10.4 mph - N/A   Clear
1:15 AM 1.4 °F -13.5 °F -7.6 °F 66% 30.52 in 10.0 mi North 9.2 mph - N/A   Clear
1:35 AM 1.4 °F -12.5 °F -5.8 °F 72% 30.53 in 10.0 mi NNE 8.1 mph - N/A   Clear
1:55 AM 1.4 °F -13.5 °F -5.8 °F 72% 30.52 in 10.0 mi NNE 9.2 mph 16.1 mph N/A   Clear
2:15 AM 1.4 °F -12.5 °F -7.6 °F 66% 30.52 in 10.0 mi NNE 8.1 mph - N/A   Clear
2:35 AM 1.4 °F -11.3 °F -7.6 °F 66% 30.53 in 10.0 mi NNE 6.9 mph - N/A   Clear
2:55 AM 1.4 °F -13.5 °F -7.6 °F 66% 30.53 in 10.0 mi NNE 9.2 mph - N/A   Clear
3:15 AM 1.4 °F -12.5 °F -7.6 °F 66% 30.54 in 10.0 mi NNE 8.1 mph - N/A   Clear
3:35 AM 1.4 °F -13.5 °F -7.6 °F 66% 30.55 in 10.0 mi NNE 9.2 mph - N/A   Clear
3:55 AM 1.4 °F -11.3 °F -7.6 °F 66% 30.55 in 10.0 mi NNE 6.9 mph - N/A   Clear
4:15 AM 1.4 °F -11.3 °F -7.6 °F 66% 30.54 in 10.0 mi NNE 6.9 mph - N/A   Clear
4:35 AM 1.4 °F -12.5 °F -7.6 °F 66% 30.53 in 10.0 mi NNE 8.1 mph - N/A   Clear
4:55 AM 1.4 °F -13.5 °F -7.6 °F 66% 30.52 in 10.0 mi NE 9.2 mph - N/A   Clear
5:15 AM 1.4 °F -9.9 °F -7.6 °F 66% 30.51 in 10.0 mi NE 5.8 mph - N/A   Clear
5:35 AM 1.4 °F -12.5 °F -7.6 °F 66% 30.52 in 10.0 mi NE 8.1 mph - N/A   Clear
5:55 AM 1.4 °F -13.5 °F -7.6 °F 66% 30.51 in 10.0 mi ENE 9.2 mph - N/A   Clear
6:15 AM 1.4 °F -13.5 °F -5.8 °F 72% 30.52 in 10.0 mi NE 9.2 mph - N/A   Clear
6:35 AM 1.4 °F -11.3 °F -5.8 °F 72% 30.52 in 10.0 mi NE 6.9 mph - N/A   Clear
6:55 AM 1.4 °F -12.5 °F -5.8 °F 72% 30.52 in 10.0 mi ENE 8.1 mph - N/A   Clear
7:15 AM 1.4 °F -14.5 °F -5.8 °F 72% 30.53 in 10.0 mi ENE 10.4 mph - N/A   Clear
7:35 AM 1.4 °F -13.5 °F -5.8 °F 72% 30.54 in 10.0 mi ENE 9.2 mph - N/A   Clear
7:55 AM 1.4 °F -14.5 °F -5.8 °F 72% 30.53 in 10.0 mi ENE 10.4 mph - N/A   Clear
8:15 AM 1.4 °F -16.1 °F -5.8 °F 72% 30.53 in 10.0 mi ENE 12.7 mph - N/A   Clear
8:35 AM 3.2 °F -13.1 °F -5.8 °F 66% 30.52 in 10.0 mi East 11.5 mph - N/A   Clear
8:55 AM 3.2 °F -11.3 °F -4.0 °F 72% 30.52 in 10.0 mi East 9.2 mph - N/A   Clear
9:15 AM 5.0 °F -10.8 °F -4.0 °F 66% 30.52 in 10.0 mi East 11.5 mph - N/A   Clear
9:35 AM 5.0 °F -10.8 °F -4.0 °F 66% 30.52 in 10.0 mi ESE 11.5 mph - N/A   Clear
9:55 AM 6.8 °F -9.3 °F -2.2 °F 67% 30.50 in 10.0 mi ESE 12.7 mph - N/A   Clear
10:15 AM 6.8 °F -6.9 °F -4.0 °F 61% 30.51 in 10.0 mi ESE 9.2 mph - N/A   Clear
10:35 AM 8.6 °F -7.7 °F -4.0 °F 57% 30.50 in 10.0 mi SE 13.8 mph - N/A   Clear
10:55 AM 8.6 °F -7.7 °F -4.0 °F 57% 30.48 in 10.0 mi SE 13.8 mph - N/A   Clear
11:15 AM 8.6 °F -8.3 °F -2.2 °F 62% 30.48 in 10.0 mi ESE 15.0 mph - N/A   Clear
11:35 AM 10.4 °F -4.8 °F -2.2 °F 57% 30.47 in 10.0 mi ESE 12.7 mph 17.3 mph N/A   Clear
11:55 AM 12.2 °F -2.5 °F -2.2 °F 53% 30.45 in 10.0 mi ESE 12.7 mph - N/A   Clear
12:15 PM 12.2 °F -2.5 °F -2.2 °F 53% 30.43 in 10.0 mi SE 12.7 mph - N/A   Clear
12:35 PM 12.2 °F -1.0 °F -2.2 °F 53% 30.43 in 10.0 mi SE 10.4 mph - N/A   Clear
12:55 PM 14.0 °F 1.2 °F -2.2 °F 49% 30.41 in 10.0 mi SSE 10.4 mph - N/A   Clear
1:15 PM 15.8 °F 3.4 °F -2.2 °F 45% 30.37 in 10.0 mi SSE 10.4 mph 16.1 mph N/A   Clear
1:35 PM 15.8 °F 2.1 °F -2.2 °F 45% 30.36 in 10.0 mi SE 12.7 mph - N/A   Clear
1:55 PM 15.8 °F 2.7 °F -2.2 °F 45% 30.36 in 10.0 mi SE 11.5 mph - N/A   Clear
2:15 PM 15.8 °F 2.7 °F -2.2 °F 45% 30.33 in 10.0 mi SSE 11.5 mph 17.3 mph N/A   Clear
2:35 PM 15.8 °F 4.2 °F -2.2 °F 45% 30.33 in 10.0 mi SE 9.2 mph 17.3 mph N/A   Clear
2:55 PM 17.6 °F 7.3 °F -2.2 °F 42% 30.32 in 10.0 mi SE 8.1 mph - N/A   Clear
3:15 PM 17.6 °F 6.4 °F -2.2 °F 42% 30.30 in 10.0 mi SE 9.2 mph - N/A   Clear
3:35 PM 17.6 °F 3.7 °F -2.2 °F 42% 30.29 in 10.0 mi SE 13.8 mph - N/A   Clear
3:55 PM 17.6 °F 3.7 °F -2.2 °F 42% 30.28 in 10.0 mi SE 13.8 mph - N/A   Clear
4:15 PM 17.6 °F 5.0 °F -2.2 °F 42% 30.27 in 10.0 mi SE 11.5 mph - N/A   Clear
5:35 PM 17.6 °F 6.4 °F -2.2 °F 42% 30.24 in 10.0 mi SE 9.2 mph - N/A   Overcast
5:55 PM 17.6 °F 5.7 °F -2.2 °F 42% 30.24 in 10.0 mi SSE 10.4 mph - N/A   Overcast
6:15 PM 17.6 °F 3.7 °F -2.2 °F 42% 30.22 in 10.0 mi SE 13.8 mph - N/A   Overcast
6:35 PM 17.6 °F 3.7 °F -2.2 °F 42% 30.21 in 10.0 mi SE 13.8 mph 18.4 mph N/A   Overcast
6:55 PM 17.6 °F 2.2 °F -2.2 °F 42% 30.20 in 10.0 mi SE 17.3 mph - N/A   Overcast
7:15 PM 17.6 °F 5.7 °F -2.2 °F 42% 30.20 in 10.0 mi SSE 10.4 mph - N/A   Overcast
7:35 PM 17.6 °F 5.7 °F -2.2 °F 42% 30.20 in 10.0 mi SE 10.4 mph 16.1 mph N/A   Overcast
7:55 PM 17.6 °F 5.0 °F -2.2 °F 42% 30.20 in 10.0 mi SSE 11.5 mph - N/A   Overcast
8:15 PM 17.6 °F 5.7 °F -0.4 °F 45% 30.20 in 10.0 mi SE 10.4 mph - N/A   Overcast
8:35 PM 17.6 °F 4.3 °F -0.4 °F 45% 30.20 in 10.0 mi SSE 12.7 mph 16.1 mph N/A   Overcast
8:55 PM 17.6 °F 7.3 °F -0.4 °F 45% 30.18 in 10.0 mi SSE 8.1 mph - N/A   Overcast
9:15 PM 17.6 °F 6.4 °F -0.4 °F 45% 30.21 in 10.0 mi SSE 9.2 mph - N/A   Overcast
9:35 PM 17.6 °F 7.3 °F -0.4 °F 45% 30.19 in 10.0 mi SSE 8.1 mph - N/A   Overcast
9:55 PM 19.4 °F 8.6 °F 1.4 °F 46% 30.21 in 10.0 mi South 9.2 mph - N/A   Overcast
10:15 PM 19.4 °F 8.6 °F 1.4 °F 46% 30.19 in 10.0 mi South 9.2 mph - N/A   Overcast
10:35 PM 19.4 °F 7.9 °F 1.4 °F 46% 30.19 in 10.0 mi South 10.4 mph - N/A   Overcast
10:55 PM 19.4 °F 8.6 °F 1.4 °F 46% 30.19 in 10.0 mi South 9.2 mph - N/A   Overcast
11:15 PM 19.4 °F 8.6 °F 1.4 °F 46% 30.17 in 10.0 mi South 9.2 mph - N/A   Overcast
11:35 PM 19.4 °F 7.9 °F 3.2 °F 49% 30.18 in 10.0 mi South 10.4 mph - N/A   Overcast
11:55 PM 19.4 °F 9.5 °F 3.2 °F 49% 30.19 in 10.0 mi SSW 8.1 mph - N/A   Overcast